Regional Weather Roundup
Issued by NWS

Home | Current Version | Previous Version | Graphics & Text | Print | Product List | Glossary On
Versions: 1 2 3 4 5 6 7 8 9 10 11 12 13 14 15 16 17 18 19 20 21 22 23 24 25 26 27 28 29 30 31 32 33 34 35 36 37 38 39 40 41 42 43 44 45 46 47 48 49 50
000
ASUS45 KTFX 160704
RWRMT
MONTANA HOURLY WEATHER ROUNDUP
NATIONAL WEATHER SERVICE GREAT FALLS MT
104 AM MDT WED APR 16 2014

NOTE: "FAIR" INDICATES FEW OR NO CLOUDS BELOW 12000 FEET WITH NO
SIGNIFICANT WEATHER AND/OR OBSTRUCTIONS TO VISIBILITY.

* THESE STATIONS ARE NOT UNDER NWS QUALITY CONTROL. THEY DO NOT
   REPORT WEATHER SUCH AS PRECIPITATION OR FOG.

MTZ001>007-043-160800-
WEST OF THE DIVIDE
CITY           SKY/WX    TMP DP  RH WIND       PRES   REMARKS
KALISPELL      MOCLDY    34  32  92 CALM      29.92R
MISSOULA       MOCLDY    36  34  92 NE6       29.99R WCI  31
BUTTE          PTCLDY    30  19  64 NW8       29.94R WCI  22
MULLAN PASS    MOCLDY    27  25  92 S5        29.92R WCI  21
* ESSEX        N/A       32  31  96 N/A        N/A
* LINCOLN      N/A       33  31  92 SW3G10     N/A
* LOOKOUT PASS N/A       30  29  96 N/A        N/A
* POLSON       N/A       32  28  85 SE2G9      N/A
* SEELEY LAKE  N/A       31  30  96 N/A        N/A
* THOMP F APT  PTCLDY    29  15  56 N5G18      N/A   WCI  24
* YAAK HILL    N/A       33  31  92 N1         N/A
$$

MTZ008-052>055-160800-
SOUTHWEST MONTANA
CITY           SKY/WX    TMP DP  RH WIND       PRES   REMARKS
BOZEMAN        CLOUDY    36  30  79 E6        29.93R WCI  31
DILLON         MOCLDY    32  18  56 SW13      29.95R WCI  22
W YELLOWSTONE  N/A       23  21  92 S1         N/A
* THREE FORKS  MOCLDY    39  27  62 N/A        N/A
* BOULDER HILL N/A       34  17  50 NE4G17     N/A
* MONIDA PASS  N/A       25  13  60 NW12G22    N/A   WCI  14
* RAYNOLDS PAS N/A       26  25  96 N11        N/A   WCI  16
* WHITEHALL    N/A       37  20  50 NW3        N/A
* WISE RIVER   N/A       33  18  54 W13G23     N/A   WCI  24
$$

MTZ009>010-012-014-046-048-049-054-160800-
EAST SLOPES AND CENTRAL MONTANA
CITY           SKY/WX    TMP DP  RH WIND       PRES   REMARKS
CUT BANK       LGT SNOW  34  32  92 NW7       29.89R VSB 3    WCI  28
GREAT FALLS    CLOUDY    36  36 100 W5        29.87R WCI  32
HELENA         CLOUDY    41  25  53 W8        29.91R
MALMSTROM AFB  LGT RAIN  37  34  89 SW3       29.85R
* CONRAD       CLOUDY    34  34 100 W5         N/A   WCI  29
* DEARBORN     N/A       36  34  92 S4         N/A
* EAST GLACIER N/A       30  29  96 N/A        N/A
* MONARCH      N/A       30  28  92 NW9        N/A   WCI  22
* PENDROY      N/A       32  32 100 N9         N/A   WCI  24
* ROGERS PASS  N/A       31  27  85 SE8G18     N/A   WCI  24
* SAINT MARY   N/A       32  31  96 W1         N/A
* SWEET GRASS  N/A       32  32 100 NW5        N/A   WCI  27
$$

MTZ011-013-016-021-035-040-045-047-050-051-160800-
NORTH CENTRAL MONTANA
CITY           SKY/WX    TMP DP  RH WIND       PRES   REMARKS
HAVRE          CLOUDY    36  21  54 NE7       29.88R WCI  30
LEWISTOWN      CLOUDY    34  32  92 W7        29.84R WCI  28
* CHESTER      N/A       39  25  57 NE7G13     N/A   WCI  34
* DENTON       N/A       36  32  85 W10        N/A   WCI  29
* GEYSER       N/A       33  33 100 W11        N/A   WCI  24
* JUDITH GAP   N/A       36  30  79 NW19G24    N/A   WCI  25
* LOMA         N/A       40  33  76 NW8        N/A   WCI  35
$$

MTZ017>020-022>027-061-062-160800-
NORTHEAST MONTANA
CITY           SKY/WX    TMP DP  RH WIND       PRES   REMARKS
GLASGOW        MOCLDY    30  19  64 NE17      29.78R WCI  18
GLENDIVE       MOCLDY    36  21  54 N14       29.70R WCI  27
JORDAN         CLOUDY    41  23  49 N18       29.73R
SIDNEY         CLOUDY    36  19  50 NE10      29.77R WCI  29
WOLF POINT     CLOUDY    32  19  59 NE13      29.79R WCI  22
* BEAVER HILL  N/A       34  22  61 NE17G27    N/A   WCI  23
* CIRCLE       N/A       38  25  60 N7G13      N/A   WCI  33
* LINDSAY DVD  N/A       35  22  59 NE9        N/A   WCI  28
* NAVAJO       N/A       24  21  88 E16        N/A   WCI  11
* SACO         N/A       29  18  63 VRB9       N/A   WCI  21
$$

MTZ028>042-056>058-160800-
SOUTHCENTRAL AND SOUTHEAST MONTANA
CITY           SKY/WX    TMP DP  RH WIND       PRES   REMARKS
BAKER          CLOUDY    45  28  51 W9        29.63R
BILLINGS       CLOUDY    39  30  70 NW18      29.81R WCI  30
LIVINGSTON     CLOUDY    36  28  73 SW17G28   29.89R WCI  26
MILES CITY     MOCLDY    43  27  53 NE7       29.68R
* LAUREL APT   MOCLDY    41  27  58 W14G25     N/A
* ROUNDUP APT  CLOUDY    43  28  56 W20G25     N/A
* HYSHAM       N/A       39  32  76 W7         N/A   WCI  34
* LAME DEER    N/A       36  35  96 W13G19     N/A   WCI  27
* REED POINT   N/A       38  32  79 W18G31     N/A   WCI  28
* ROSCOE HILL  N/A       35  16  46 W5G15      N/A   WCI  31
$$

REGIONAL REPORTS...DAKOTAS
CITY           SKY/WX    TMP DP  RH WIND       PRES   REMARKS
WILLISTON      MOCLDY   N/A N/A N/A N/A       29.83R
DICKINSON      CLOUDY    28  18  66 NE14      29.70R WCI  17
CROSBY         LGT SNOW  25  25 100 E22       29.89R VSB 3    WCI  10
TIOGA          LGT SNOW  25  25 100 E18G24    29.86R VSB 3    WCI  11
WATFORD CITY   CLEAR     27  19  72 E16G23    29.75R WCI  15
BISMARCK       CLOUDY    30  16  56 E21G30    29.78R WCI  17
GRAND FORKS    CLOUDY    28  12  51 E15       29.97S WCI  16
FARGO          LGT SNOW  30  21  69 SE21G26   29.96F WCI  17
BUFFALO SD     CLOUDY    37  25  62 NE10      29.57S WCI  30
RAPID CITY     CLOUDY    41  37  86 NW18G26   29.60S
$$

REGIONAL REPORTS...WYOMING/IDAHO/WASHINGTON
CITY           SKY/WX    TMP DP  RH WIND       PRES   REMARKS
GILLETTE       N/A       37  34  89 NW17      29.70R WCI  27
SHERIDAN       CLOUDY    37  34  89 NW22G31   29.78R WCI  26
CODY           MOCLDY    34  27  76 NE10      29.82R WCI  26
YELLOWSTONE LA PTCLDY    18  16  92 CALM      29.91R
SALMON         PTCLDY    34  19  54 NE5       30.00R WCI  29
MULLAN PASS    MOCLDY    27  25  92 S5        29.92S WCI  21
SPOKANE        CLOUDY    43  23  45 SW8       29.95R

$$




USA.gov is the U.S. government's official web portal to all federal, state and local government web resources and services.